Location: Newark
(56.0692°N, 115.8617°E)
Time: 12:46:21
(UTC+00:00)

Vanguard 2 Rocket - Pass Details

Date: 29 May 2020
Orbit: 556 x 3325 km, 32.9° (Epoch: 14 July)

Event Time Altitude Azimuth Distance (km) Brightness Sun altitude
Rises 11:15:20 0° 250° (WSW) 5,247 11.6 9.8°
Reaches altitude 10° 11:19:12 10° 238° (WSW) 4,649 11.0 9.3°
Maximum altitude 11:29:31 25° 190° (S) 4,350 10.3 8.0°
Drops below altitude 10° 11:43:03 10° 145° (SE) 6,175 10.6 6.4°
Sets 11:49:24 0° 135° (SE) 7,303 10.9 5.6°
